CAPE
0 0 0 0 0 0 0 0 0 0 0 0 0 0 0 0 1 1 2 1 0 0 2 2 2 2 10 2 3 0 0 0 2 0 0 0 0 1 1 3 3 2 2
0 0 0 0 0 0 1 0 0 0 1 0 0 0 0 0 0 1 2 0 0 0 1 2 2 6 1 0 0 0 0 0 0 0 0 0 0 2 3 3 3 3 1
0 0 0 0 0 0 0 0 0 0 0 1 0 0 0 0 0 0 0 2 1 2 2 8 0 0 0 0 0 0 0 0 0 0 0 0 1 2 3 4 4 2 1
0 0 0 0 0 0 0 0 1 0 1 1 0 0 0 0 0 0 0 1 0 0 0 0 0 0 0 0 0 0 0 0 0 0 0 0 0 3 3 4 2 3 3
0 0 0 0 0 0 0 0 0 0 0 0 0 0 0 0 0 0 0 0 0 0 0 0 0 1 0 0 0 1 1 0 0 0 0 0 0 0 0 3 2 3 2
0 0 0 0 0 0 0 0 0 0 0 0 0 0 0 0 0 0 0 0 0 0 0 0 0 0 0 0 0 0 1 1 0 0 0 0 0 0 0 1 2 2 1
0 0 0 0 0 0 0 0 0 0 0 0 0 0 0 1 0 0 0 0 0 0 0 0 0 0 0 0 0 0 0 0 2 2 1 1 1 0 0 0 2 2 1
0 0 0 0 0 0 0 0 0 1 0 1 1 0 0 0 0 0 0 0 0 0 0 0 0 0 0 0 0 0 0 1 1 0 0 0 0 0 0 0 0 1 1
0 0 0 0 0 0 0 0 0 0 0 0 0 0 0 0 0 0 0 0 0 0 0 0 0 0 0 0 0 0 3 1 0 0 0 0 0 0 0 0 0 0 0
0 0 0 0 0 0 0 0 0 0 0 0 0 0 0 0 0 0 0 0 0 0 0 0 0 0 0 0 1 1 1 1 0 0 0 0 0 0 0 0 0 0 0
0 0 0 0 0 0 0 0 0 0 0 0 0 0 0 0 0 0 0 0 0 1 1 1 0 0 0 1 1 1 1 0 0 0 0 1 0 0 0 1 0 1 1
0 0 0 0 0 0 0 0 0 0 0 0 0 0 0 0 0 0 3 0 1 0 1 1 0 1 1 1 0 0 0 0 0 0 1 1 1 1 2 0 0 0 0
0 0 0 0 0 0 0 0 0 0 0 0 0 0 0 1 0 1 2 1 1 1 0 0 0 0 0 1 0 0 0 0 0 1 1 2 0 0 0 1 0 3 1
0 0 0 0 0 0 0 0 0 0 0 0 0 0 0 0 2 1 2 1 0 0 1 0 0 0 0 0 0 0 2 0 1 1 1 0 0 0 0 0 0 0 0
0 0 0 0 0 0 0 0 0 2 1 0 0 0 0 0 0 0 0 1 2 0 0 0 0 0 0 1 0 0 0 0 0 0 1 1 1 0 0 0 0 0 0
0 0 0 0 0 0 0 0 0 0 0 0 0 0 0 0 0 0 0 2 0 0 0 0 0 0 0 0 0 0 0 0 0 0 0 0 0 0 0 0 0 0 0
0 0 0 0 0 0 0 0 0 1 0 0 0 0 0 0 0 0 0 2 1 0 0 0 0 0 0 0 0 0 0 0 0 0 0 0 0 0 0 0 0 0 1
0 0 0 0 0 0 0 0 1 0 0 1 2 0 1 0 0 0 2 0 0 0 0 0 0 0 0 0 0 0 0 1 1 0 0 0 0 0 0 2 2 4 5
1 1 1 2 2 2 2 4 3 1 1 0 0 1 1 2 2 2 2 0 0 0 0 0 0 0 0 0 0 0 0 0 0 0 0 0 0 1 0 1 1 1 0
4 4 3 3 3 3 4 3 3 3 3 1 2 1 0 0 0 0 0 0 0 0 0 0 0 0 0 0 0 0 0 0 0 0 0 0 0 0 0 0 0 0 0
2 2 2 3 4 4 4 2 3 3 2 1 2 0 0 0 0 0 0 0 0 0 0 0 0 0 0 0 0 0 0 0 0 0 0 0 0 0 0 0 0 0 0
0 0 0 0 1 1 3 1 2 0 0 0 0 0 0 0 0 0 0 0 0 0 0 0 0 0 0 0 0 0 0 0 0 0 0 0 0 0 0 0 0 0 0
0 0 0 0 0 0 0 1 1 0 0 0 0 0 0 0 0 0 0 0 0 0 0 0 0 0 0 0 0 0 0 0 0 0 0 0 0 0 0 0 0 0 0
0 0 0 0 0 0 0 0 0 0 0 0 0 0 0 0 0 0 0 0 0 0 0 0 0 0 0 0 0 0 0 0 0 0 0 0 0 0 0 0 0 0 0
0 0 0 0 0 0 0 0 0 0 0 0 0 0 0 0 0 0 0 0 0 0 0 0 0 0 0 0 0 0 0 0 0 0 0 0 0 0 0 0 0 0 0
0 0 0 0 0 0 0 0 0 0 0 0 0 0 0 0 0 0 0 0 0 0 0 0 0 0 0 0 0 0 0 0 0 0 0 0 0 0 0 0 0 0 0
CIN
0 0 0 0 0 0 0 0 0 0 0 0 0 0 0 0 0 0 0 0 0 0 0 0 -13 0 -56 -46 -40 -12 0 0 -2 0 0 0 0 0 0 0 0 0 0
0 0 0 0 0 0 0 0 0 0 0 0 0 0 0 0 0 0 0 0 0 0 0 -43 -40 -46 -3 -3 0 -1 0 0 0 0 0 0 0 0 0 0 0 0 0
0 0 0 0 0 0 0 0 0 0 0 0 0 0 0 0 0 0 0 0 0 0 -6 -29 0 0 0 0 0 0 0 0 0 0 0 0 0 0 0 0 0 0 0
0 0 0 0 0 0 0 0 0 0 0 0 0 0 0 0 0 0 0 0 -11 0 -32 0 0 0 0 0 0 0 0 0 0 0 0 0 0 0 0 0 0 0 0
0 0 0 0 0 0 0 0 0 0 0 0 0 0 0 0 0 0 0 0 0 0 0 0 0 0 0 0 0 0 0 0 0 0 0 0 0 0 0 0 0 0 0
0 0 0 0 0 0 0 0 0 0 0 0 0 0 0 0 0 0 0 0 0 0 0 0 0 0 0 0 0 0 0 0 0 0 0 0 0 0 0 0 0 0 0
0 0 0 0 0 0 0 0 0 0 0 0 0 0 0 0 0 0 0 0 0 0 0 0 0 0 0 0 0 0 0 0 0 0 0 0 0 0 0 0 0 0 0
0 0 0 0 0 0 0 0 0 0 0 0 0 0 0 0 0 0 0 0 0 0 0 0 0 0 0 0 0 0 0 0 0 0 0 0 0 0 0 0 0 0 0
0 0 0 0 0 0 0 0 0 0 0 0 0 0 0 0 0 0 0 0 0 0 0 0 0 0 0 0 0 0 0 0 0 0 0 0 0 0 0 0 0 0 0
0 0 0 0 0 0 0 0 0 0 0 0 0 0 0 0 0 0 0 0 0 0 0 0 0 0 0 0 0 0 0 0 0 0 0 0 0 0 0 0 0 0 0
0 0 0 0 0 0 0 0 0 0 0 0 0 0 0 0 0 0 0 0 0 0 0 0 0 0 0 0 0 0 0 0 0 0 0 0 0 0 0 0 0 0 0
0 0 0 0 0 0 0 0 0 0 0 0 0 0 0 0 0 0 0 0 0 0 0 0 0 0 0 0 0 0 0 0 0 0 0 0 0 0 0 0 0 0 0
0 0 0 0 0 0 0 0 0 0 0 0 0 0 0 0 0 0 0 0 0 0 0 0 0 0 0 0 0 0 0 0 0 0 0 0 0 0 0 0 0 0 0
0 0 0 0 0 0 0 0 0 0 0 0 0 0 0 0 0 0 0 0 0 0 0 0 0 0 0 0 0 0 0 0 0 0 0 0 0 0 0 0 0 0 0
0 0 0 0 0 0 0 0 0 0 0 0 0 0 0 0 0 0 0 0 0 0 0 0 0 0 0 0 0 0 0 0 0 0 0 0 0 0 0 0 0 0 0
0 0 0 0 0 0 0 0 0 0 0 0 0 0 0 0 0 0 0 0 0 0 0 0 0 0 0 0 0 0 0 0 0 0 0 0 0 0 0 0 0 0 0
0 0 0 0 0 0 0 0 0 0 0 0 0 0 0 0 0 0 0 0 0 0 0 0 0 0 0 0 0 0 0 0 0 0 0 0 0 0 0 0 0 0 -2
0 0 0 0 0 0 0 0 0 0 0 0 0 0 0 0 0 0 0 0 0 0 0 0 0 0 0 0 0 0 0 0 0 0 0 0 0 0 0 0 0 0 -1
0 0 0 0 0 0 0 0 0 0 0 0 0 0 0 0 0 0 0 0 0 0 0 0 0 0 0 0 0 0 0 0 0 0 0 0 0 0 0 0 0 0 0
0 0 0 0 0 0 0 0 0 0 0 0 0 0 0 0 0 0 0 0 0 0 0 0 0 0 0 0 0 0 0 0 0 0 0 0 0 0 0 0 0 0 0
0 0 0 0 0 0 0 0 0 0 0 0 0 0 0 0 0 0 0 0 0 0 0 0 0 0 0 0 0 0 0 0 0 0 0 0 0 0 0 0 0 0 0
0 0 0 0 0 0 0 0 0 0 0 0 0 0 0 0 0 0 0 0 0 0 0 0 0 0 0 0 0 0 0 0 0 0 0 0 0 0 0 0 0 0 0
0 0 0 0 0 0 0 0 0 0 0 0 0 0 0 0 0 0 0 0 0 0 0 0 0 0 0 0 0 0 0 0 0 0 0 0 0 0 0 0 0 0 0
0 0 0 0 0 0 0 0 0 0 0 0 0 0 0 0 0 0 0 0 0 0 0 0 0 0 0 0 0 0 0 0 0 0 0 0 0 0 0 0 0 0 0
0 0 0 0 0 0 0 0 0 0 0 0 0 0 0 0 0 0 0 0 0 0 0 0 0 0 0 0 0 0 0 0 0 0 0 0 0 0 0 0 0 0 0
0 0 0 0 0 0 0 0 0 0 0 0 0 0 0 0 0 0 0 0 0 0 0 0 0 0 0 0 0 0 0 0 0 0 0 0 0 0 0 0 0 0 0
Wind_Speed
22 21 21 22 28 29 25 23 22 21 19 18 17 16 16 16 16 16 16 17 18 18 18 19 20 18 20 18 18 18 18 19 22 23 23 21 20 19 20 17 14 13 14
22 22 21 23 26 26 26 26 25 22 20 19 18 17 17 17 17 17 18 18 19 20 20 21 21 19 18 18 19 19 20 20 20 21 23 21 21 20 19 17 13 11 10
24 23 23 23 24 25 27 28 26 24 23 21 20 20 19 18 18 18 19 20 20 21 20 20 20 19 19 19 19 21 22 23 21 22 24 22 21 21 21 18 16 12 11
24 24 25 26 27 28 30 29 27 25 24 23 22 21 21 20 20 20 19 20 19 18 19 20 19 19 18 19 21 22 23 25 23 22 22 22 21 21 20 21 20 16 14
30 29 29 28 28 28 28 26 26 25 24 23 22 22 21 20 19 19 17 17 17 18 19 19 19 19 20 22 23 24 25 26 24 24 23 23 25 25 23 24 21 21 18
29 30 29 28 25 26 26 25 25 24 22 22 22 21 19 18 16 14 14 15 17 18 19 19 19 21 22 23 22 22 22 23 23 24 25 24 26 25 23 24 22 22 25
28 27 28 27 26 26 25 24 24 24 21 20 19 18 17 16 13 13 15 17 18 19 19 21 21 21 21 21 22 22 22 22 23 24 25 25 27 25 25 24 22 23 24
28 27 26 25 24 22 23 23 22 21 20 19 18 17 17 16 14 14 15 16 18 19 19 19 20 20 20 20 20 22 22 22 22 23 24 26 25 26 25 26 25 23 24
31 28 25 23 22 20 21 21 21 20 20 19 18 17 16 15 14 14 15 16 17 18 18 18 19 20 19 19 21 22 22 21 22 23 23 25 25 24 23 23 24 25 28
33 29 26 23 21 21 20 20 20 19 18 16 16 16 15 14 15 15 16 17 17 17 17 17 18 18 18 19 19 20 21 21 21 20 21 22 23 24 23 22 24 27 29
32 29 27 25 24 22 21 21 19 18 16 16 16 16 15 15 16 16 16 16 16 15 16 17 17 17 18 19 18 18 18 19 21 21 22 23 24 24 24 23 23 24 27
31 30 30 27 24 23 22 20 19 17 18 18 17 17 18 17 17 16 15 15 13 14 15 15 17 19 19 20 20 19 18 19 21 22 23 24 25 26 26 25 25 24 24
32 31 29 26 24 22 21 20 20 20 20 20 20 19 19 17 17 15 13 13 12 13 13 14 16 18 19 20 21 20 19 20 21 24 25 26 26 26 27 27 27 26 26
34 32 29 27 25 24 23 21 22 22 22 22 21 21 19 17 16 14 13 12 11 11 10 13 15 17 18 19 19 20 20 21 22 24 26 27 27 27 28 28 29 29 30
33 31 30 28 27 25 25 24 24 24 23 22 22 20 19 18 16 13 12 12 11 10 11 14 16 17 19 19 20 20 21 22 23 24 26 28 29 30 31 30 31 32 33
32 32 31 29 28 26 25 24 23 23 21 20 19 18 19 17 14 12 11 10 9 9 13 15 18 19 20 21 22 23 23 24 25 26 28 30 31 32 32 32 32 33 35
30 30 29 29 28 27 26 24 25 23 20 20 19 18 17 15 13 12 10 9 10 11 15 17 18 19 21 22 23 24 26 26 27 28 30 30 31 32 33 34 34 34 35
28 28 28 28 27 27 26 25 24 25 23 21 17 17 16 15 13 12 10 10 13 16 16 18 19 20 22 23 24 26 27 28 28 30 31 32 32 34 35 35 34 36 35
25 26 26 25 25 24 23 22 22 23 21 20 19 17 16 16 14 12 13 16 17 18 18 20 21 22 23 23 24 26 28 29 30 31 31 31 32 33 33 33 34 35 36
22 23 24 24 24 23 23 24 23 22 21 21 21 20 18 17 19 19 18 17 18 18 19 21 22 22 23 24 26 27 28 28 29 29 29 30 30 30 31 32 33 35 36
18 18 19 21 23 24 24 23 23 23 22 22 22 21 19 21 20 20 20 19 19 19 20 21 22 23 23 25 26 26 27 27 27 27 28 28 29 31 31 32 33 34 35
20 21 21 23 23 23 23 21 21 22 21 21 21 20 20 20 19 19 20 20 20 20 21 23 23 24 24 24 24 24 25 25 25 25 26 27 28 29 31 32 34 35 36
20 20 21 22 22 21 22 22 22 21 21 21 20 20 20 20 21 21 21 21 22 24 23 23 23 24 23 22 22 22 23 24 24 24 26 28 29 30 31 33 34 35 38
19 19 20 21 22 22 22 22 22 22 21 21 21 21 22 22 23 23 24 25 25 24 23 23 23 23 22 22 21 21 22 22 23 24 25 28 29 30 31 33 34 35 38
20 20 20 20 21 21 21 21 22 22 23 23 24 25 25 26 27 26 26 26 26 26 25 24 24 23 22 22 22 22 22 23 24 25 26 27 29 31 32 32 33 35 36
23 23 23 23 23 23 24 24 25 25 26 26 27 27 28 28 29 30 30 29 28 27 26 25 24 24 23 23 24 24 24 25 25 26 26 28 30 31 31 32 34 35 34
Wind_Direction
241 239 238 237 250 254 253 254 257 261 260 260 265 269 272 275 277 279 283 289 291 293 296 298 301 302 308 311 314 316 316 315 312 328 334 338 338 336 336 334 329 324 322
252 246 238 247 250 251 253 258 261 261 263 263 267 269 273 276 279 280 284 288 291 295 297 300 302 307 307 313 317 316 318 321 321 318 329 332 333 338 337 337 333 327 324
259 252 248 245 247 250 256 260 262 263 265 267 268 270 273 276 279 281 285 290 293 296 299 302 307 311 313 316 318 319 319 319 319 320 324 332 336 339 337 336 335 333 330
263 258 252 250 252 257 261 262 262 264 266 268 268 271 274 277 279 283 286 290 294 298 304 308 309 313 313 316 318 319 319 318 320 321 324 328 331 336 336 338 337 336 335
263 263 261 259 258 259 260 262 263 265 267 268 270 273 276 276 279 282 285 288 292 297 302 307 311 315 316 318 318 318 318 317 320 320 322 327 330 332 334 336 339 340 336
264 264 263 261 258 258 261 262 264 265 267 269 270 271 274 278 280 280 284 290 294 297 300 306 311 314 315 317 320 322 322 322 321 322 323 324 325 329 332 331 334 336 336
263 263 261 261 261 261 261 262 263 264 266 267 269 271 275 279 280 285 288 291 294 298 302 306 310 315 318 320 321 323 324 323 319 321 320 323 325 328 331 330 329 330 332
264 262 261 260 260 260 260 261 262 263 264 266 270 274 277 280 282 287 291 294 296 300 305 308 312 315 319 320 321 321 324 325 325 321 320 322 325 327 328 330 331 332 334
262 262 260 258 257 256 256 258 261 263 267 270 273 275 277 281 284 287 291 294 298 303 308 312 315 317 321 324 324 325 328 331 331 330 329 329 331 333 334 335 333 332 331
259 259 258 256 253 253 255 257 263 266 269 272 274 277 279 281 285 287 291 294 296 302 309 314 318 320 323 324 324 326 327 330 334 334 334 333 332 332 332 332 331 328 329
258 256 255 254 253 254 255 260 260 264 266 269 272 276 277 279 283 286 288 291 295 300 306 311 318 322 323 325 327 327 329 333 333 332 333 332 331 330 329 329 330 328 327
252 252 254 255 256 256 255 257 259 259 262 266 268 274 279 281 282 284 287 291 296 301 307 316 321 325 328 329 329 329 330 332 332 330 331 332 331 331 332 330 329 328 326
252 250 251 254 254 254 253 254 257 260 263 264 265 269 273 277 280 282 286 289 296 304 312 319 324 329 330 328 329 331 332 332 332 330 329 328 329 331 331 331 331 329 327
252 248 248 249 252 253 255 256 259 259 263 264 265 265 266 268 271 278 283 289 292 300 311 320 326 328 328 328 329 329 329 329 328 327 327 329 331 331 331 331 330 330 328
249 247 248 250 251 252 256 259 263 267 266 263 263 261 257 259 261 264 272 278 284 292 309 317 322 323 324 324 325 327 330 331 330 330 330 329 330 331 330 332 330 330 328
249 248 247 249 251 253 255 263 271 272 271 267 266 260 265 267 257 259 268 273 278 291 306 311 315 317 318 319 321 323 327 329 330 330 329 329 328 329 329 330 330 329 327
249 249 250 250 250 251 253 256 265 273 272 269 265 260 260 253 252 255 257 262 275 295 303 307 310 312 315 316 318 320 322 326 328 328 328 328 327 327 327 328 328 328 327
255 251 250 250 250 251 255 259 261 259 261 261 260 257 255 255 254 256 254 271 283 296 303 305 308 309 312 313 316 319 322 324 325 326 326 328 328 328 328 329 330 330 329
261 257 253 251 252 253 255 256 258 258 256 255 254 254 257 262 260 256 265 279 284 292 300 305 307 308 311 313 317 319 320 321 323 324 326 327 328 329 329 330 330 330 330
267 262 257 255 255 254 255 260 255 254 255 250 252 253 258 262 264 268 275 283 288 295 301 304 306 309 311 314 316 318 320 321 323 325 327 329 331 332 331 332 333 332 332
273 269 264 261 259 261 259 255 257 256 252 252 257 259 260 267 267 270 276 283 290 296 300 303 305 308 310 312 315 317 320 321 324 327 329 331 333 333 334 333 333 333 332
280 276 273 268 265 262 261 259 256 255 254 256 260 263 264 268 271 275 280 286 293 298 302 302 304 306 309 311 314 317 318 321 324 327 328 330 331 332 332 332 332 332 332
288 282 279 275 271 269 267 266 263 260 258 258 259 261 264 269 274 278 283 289 295 298 300 301 303 304 307 310 313 315 317 319 323 325 327 328 329 330 330 330 330 330 330
296 291 284 281 277 274 271 269 267 266 264 264 266 268 271 274 277 281 286 290 294 296 298 299 301 302 305 307 310 313 316 318 321 322 324 325 326 326 327 328 329 329 329
301 295 291 288 285 282 278 275 273 271 270 270 272 274 276 278 281 285 288 291 292 293 294 296 298 300 301 302 304 307 311 313 315 318 320 321 322 323 325 326 327 328 328
304 300 296 293 289 286 283 279 277 276 275 275 275 276 278 281 283 286 288 289 289 291 292 293 294 295 297 299 301 303 306 309 312 314 316 318 319 322 324 325 326 327 329